FW8448 Weather Reports


Display with metric or nautical units.
time (UTC)temp
F
wind
direction
speed
MPH
gust
MPH
rain 1hr
in
rain 24hr
in
rain mn
in
humidity
%
barometer
mb
20260509204557 73 223 5.0 21.0 0.00 0.70 0.28 63 1006.5
20260509203049 73 260 11.0 19.0 0.00 0.70 0.28 61 1006.7
20260509201554 73 164 7.0 15.0 0.00 0.70 0.28 68 1007.0
20260509194549 72 227 6.0 11.0 0.00 0.70 0.28 67 1007.0
20260509193053 71 231 4.0 8.0 0.00 0.70 0.28 70 1007.2
20260509191553 71 227 5.0 14.0 0.00 0.70 0.28 72 1007.3
20260509190051 70 250 6.0 12.0 0.00 0.70 0.28 74 1007.3
20260509184552 70 202 3.0 11.0 0.00 0.70 0.28 75 1007.4
20260509183134 69 300 4.0 9.0 0.00 0.70 0.28 75 1007.4
20260509181610 68 190 4.0 13.0 0.00 0.70 0.28 76 1007.5
20260509180053 68 236 4.0 11.0 0.00 0.70 0.28 78 1007.7
20260509174553 67 225 7.0 15.0 0.00 0.70 0.28 78 1007.8
20260509173101 66 232 8.0 19.0 0.00 0.70 0.28 77 1007.7
20260509171558 67 250 4.0 14.0 0.00 0.70 0.28 80 1007.9
20260509170056 66 238 5.0 14.0 0.00 0.70 0.28 79 1008.0
20260509164600 66 229 4.0 17.0 0.00 0.70 0.28 80 1007.9
20260509163059 65 244 4.0 10.0 0.00 0.70 0.28 82 1008.0
20260509161552 64 279 5.0 17.0 0.00 0.70 0.28 80 1008.0
20260509160057 63 290 5.0 14.0 0.00 0.70 0.28 83 1008.0
20260509154601 63 231 6.0 16.0 0.00 0.70 0.28 84 1007.9
20260509153049 63 188 4.0 10.0 0.00 0.70 0.28 85 1007.8
20260509151553 61 219 4.0 12.0 0.00 0.70 0.28 85 1008.0
20260509150049 62 185 4.0 12.0 0.00 0.70 0.28 86 1008.0
20260509144556 61 230 4.0 12.0 0.00 0.70 0.28 87 1007.9
20260509143055 59 188 3.0 7.0 0.00 0.70 0.28 90 1007.7
20260509141605 58 254 2.0 12.0 0.00 0.70 0.28 92 1007.9
20260509140056 57 220 2.0 8.0 0.00 0.70 0.28 93 1007.7
20260509134558 57 221 2.0 7.0 0.00 0.70 0.28 95 1007.7
20260509133049 56 215 1.0 6.0 0.00 0.70 0.28 96 1007.6
20260509131551 56 198 0.0 7.0 0.00 0.70 0.28 97 1007.6
20260509130056 55 231 0.0 7.0 0.00 0.70 0.28 97 1007.7
20260509124550 55 214 1.0 3.0 0.00 0.70 0.28 97 1007.5
20260509123052 54 0 1.0 5.0 0.00 0.70 0.28 97 1007.7
20260509121552 53 0 1.0 5.0 0.00 0.70 0.28 97 1007.7
20260509120052 53 0 0.0 4.0 0.00 0.70 0.28 97 1007.7
20260509114550 52 233 0.0 4.0 0.00 0.70 0.28 97 1007.6
20260509113052 51 0 0.0 0.0 0.00 0.70 0.28 97 1007.6
20260509111552 51 0 0.0 0.0 0.00 0.70 0.28 97 1007.3
20260509110052 51 0 0.0 0.0 0.00 0.70 0.28 96 1007.3
20260509104554 52 0 0.0 1.0 0.00 0.70 0.28 96 1007.2
20260509103051 52 0 0.0 2.0 0.00 0.70 0.28 96 1007.2
20260509101555 53 228 1.0 9.0 0.02 0.70 0.28 96 1007.1
20260509100050 53 210 2.0 9.0 0.02 0.70 0.28 96 1007.2
20260509094552 53 245 1.0 8.0 0.02 0.70 0.28 97 1007.3
20260509093056 53 269 3.0 11.0 0.02 0.70 0.28 97 1007.3
20260509091550 53 225 2.0 11.0 0.00 0.68 0.26 97 1007.3
20260509090051 53 230 0.0 6.0 0.01 0.68 0.26 97 1007.4
20260509084555 53 211 1.0 4.0 0.01 0.68 0.26 97 1007.2
20260509083047 53 0 0.0 7.0 0.01 0.68 0.26 97 1007.5
20260509081557 53 210 0.0 4.0 0.01 0.68 0.26 97 1007.6
20260509080054 53 0 0.0 5.0 0.02 0.67 0.25 96 1007.4
20260509074551 53 0 0.0 4.0 0.05 0.67 0.25 96 1007.4
20260509073051 53 158 1.0 6.0 0.05 0.67 0.25 96 1007.6
20260509071552 54 217 2.0 8.0 0.07 0.67 0.25 96 1007.9
20260509070052 54 257 2.0 12.0 0.06 0.65 0.23 96 1008.1
20260509064546 54 0 1.0 8.0 0.04 0.62 0.20 96 1008.4
20260509063055 54 218 1.0 8.0 0.06 0.62 0.20 96 1008.4
20260509061553 54 235 2.0 9.0 0.07 0.60 0.18 96 1008.7
20260509060052 54 0 1.0 7.0 0.08 0.58 0.17 96 1008.8
20260509054551 54 132 2.0 9.0 0.09 0.58 0.16 96 1008.9
20260509053047 54 0 1.0 6.0 0.09 0.56 0.14 96 1008.9
20260509051600 54 153 2.0 5.0 0.09 0.52 0.11 96 1009.0
20260509050059 54 216 1.0 10.0 0.09 0.51 0.09 96 1009.0
20260509044550 54 0 2.0 9.0 0.09 0.49 0.07 96 1009.2
20260509043053 54 219 2.0 8.0 0.08 0.47 0.05 96 1009.1
20260509041555 54 218 0.0 9.0 0.08 0.44 0.02 96 1009.1
20260509040053 54 223 2.0 7.0 0.09 0.42 0.00 96 1009.1
20260509034552 54 209 2.0 10.0 0.09 0.40 0.40 96 1009.3
20260509033100 54 172 1.0 7.0 0.10 0.38 0.38 96 1009.4
20260509031555 54 229 2.0 9.0 0.10 0.36 0.36 96 1009.6
20260509030056 54 261 2.0 9.0 0.10 0.33 0.33 96 1009.9
20260509024553 54 200 4.0 11.0 0.09 0.31 0.31 96 1009.7
20260509023103 54 207 2.0 11.0 0.08 0.28 0.28 96 1009.7
20260509021554 54 180 1.0 9.0 0.06 0.26 0.26 96 1009.8
20260509020053 54 229 2.0 8.0 0.04 0.23 0.23 96 1010.0
20260509014551 54 217 1.0 9.0 0.04 0.22 0.22 96 1009.6
20260509013057 54 207 1.0 5.0 0.05 0.20 0.20 96 1009.6
20260509011601 54 198 1.0 4.0 0.06 0.20 0.20 95 1009.4
20260509010051 54 0 1.0 5.0 0.06 0.19 0.19 95 1009.5
20260509004549 54 0 0.0 3.0 0.07 0.17 0.17 95 1009.6
20260509003056 54 0 1.0 3.0 0.06 0.15 0.15 95 1009.4
20260509001554 54 0 1.0 5.0 0.06 0.13 0.13 94 1009.3
20260509000052 54 213 1.0 9.0 0.10 0.13 0.13 94 1009.3
20260508234550 54 279 2.0 6.0 0.08 0.10 0.10 94 1009.7
20260508233112 55 250 1.0 4.0 0.08 0.09 0.09 93 1009.6
20260508231558 55 0 0.0 4.0 0.07 0.07 0.07 92 1009.6
20260508230056 56 0 0.0 1.0 0.03 0.03 0.03 91 1010.0
20260508224634 56 0 0.0 1.0 0.02 0.02 0.02 90 1009.9
20260508223052 57 0 0.0 3.0 0.01 0.01 0.01 88 1009.9
20260508221551 58 271 1.0 21.0 0.00 0.00 0.00 82 1010.0
20260508220048 61 227 9.0 17.0 0.00 0.00 0.00 72 1009.5
20260508214546 62 221 2.0 5.0 0.00 0.00 0.00 70 1008.9
20260508213052 63 0 0.0 2.0 0.00 0.00 0.00 71 1008.9
20260508211549 63 0 0.0 2.0 0.00 0.00 0.00 70 1008.9
20260508210050 63 0 0.0 6.0 0.00 0.00 0.00 68 1008.9